Wind_Speed
16 16 17 17 17 17 17 16 16 16 15 15 16 16 16 17 17 17 17 18 18 19 19 20 20 20 19 20 20 19 19 19 18 18 18 18 17 17 16 16 17 17 18
17 17 18 18 18 18 18 17 17 17 17 16 16 17 17 17 17 17 18 19 19 19 20 21 21 21 20 21 21 21 20 20 19 18 18 18 17 17 17 17 17 18 18
18 19 19 19 19 19 19 18 18 18 18 18 18 18 18 18 18 18 18 19 19 20 20 21 21 22 22 21 21 21 20 20 20 19 18 18 18 18 18 18 18 18 18
19 20 19 19 19 19 19 19 19 19 18 18 19 19 18 18 19 19 19 19 19 20 20 21 21 21 21 21 21 21 21 20 20 19 19 19 19 19 19 19 19 19 19
21 21 20 19 20 20 19 19 19 19 19 20 19 19 19 19 19 20 20 20 19 20 20 20 20 21 21 21 21 21 21 21 21 21 21 20 20 20 20 20 20 20 20
21 21 20 20 21 21 21 20 20 20 20 20 19 19 19 20 20 20 20 20 20 20 21 21 22 22 22 21 22 22 22 22 22 21 22 22 22 21 21 21 21 21 21
23 22 22 21 21 21 22 21 22 22 21 21 21 21 21 21 21 20 21 21 21 21 21 22 22 22 23 23 22 23 22 22 22 22 22 22 21 21 22 22 22 22 22
23 23 22 22 22 22 22 23 23 23 23 23 22 22 22 21 21 21 22 22 22 22 22 22 22 22 22 23 23 23 23 23 23 23 22 22 22 21 21 21 22 22 22
23 23 23 23 24 24 24 24 24 24 24 24 23 23 22 22 22 22 23 23 22 23 22 23 22 22 22 22 23 22 22 23 23 24 24 23 23 22 22 22 22 21 21
24 24 24 24 24 24 25 25 24 24 24 24 23 23 23 23 23 23 22 22 22 22 22 22 22 22 22 22 22 22 23 23 24 23 23 23 23 23 23 23 24 23 23
24 24 24 25 25 25 25 24 24 24 24 23 23 23 23 23 24 23 23 23 23 23 23 22 22 22 22 22 22 22 23 23 23 24 23 23 23 23 24 24 24 25 24
25 25 25 25 25 25 25 25 25 25 24 24 24 24 24 24 24 24 24 24 24 23 23 22 22 22 22 22 22 22 23 23 23 24 24 24 24 24 24 25 25 25 24
25 25 25 25 25 26 26 25 26 25 25 25 25 24 24 25 25 25 24 25 24 24 23 22 22 23 23 23 23 23 23 23 24 24 25 25 25 25 25 25 25 25 24
25 25 26 26 26 26 26 25 25 25 26 26 26 26 25 26 26 25 24 24 24 23 23 23 23 23 23 23 23 23 23 23 24 24 25 25 26 26 25 25 25 24 24
26 26 26 27 27 26 26 26 26 25 25 25 25 25 25 25 26 25 24 24 23 22 23 23 23 23 23 24 24 24 24 24 24 24 25 25 25 25 25 25 25 25 25
25 26 26 26 26 25 25 25 25 25 24 24 24 24 24 24 24 24 24 23 23 23 23 24 24 24 24 24 25 24 24 24 24 24 25 25 24 24 25 26 25 25 25
24 24 25 25 24 24 24 24 24 24 23 23 23 23 23 24 23 23 23 23 23 23 24 24 24 24 24 23 23 23 23 23 23 24 24 23 23 23 23 24 24 25 24
24 23 23 23 23 23 23 23 22 22 23 22 23 23 22 23 22 22 23 23 24 24 24 24 24 24 23 23 23 24 24 24 24 24 23 23 22 22 22 23 24 24 24
23 23 23 24 23 23 23 22 23 23 23 23 23 22 22 22 22 23 23 23 23 23 23 24 24 24 23 23 24 24 23 23 23 23 23 23 23 23 23 24 24 23 23
23 24 24 24 24 24 24 24 24 24 25 24 23 22 21 22 22 23 23 23 23 23 23 23 23 23 23 23 23 23 22 22 22 23 23 23 23 23 23 23 23 23 23
23 23 24 24 24 24 25 25 25 25 24 22 21 21 21 21 21 21 22 22 23 23 23 23 22 22 22 21 22 22 23 23 23 23 23 22 23 23 23 23 23 23 24
22 23 23 23 24 24 24 25 25 25 24 22 22 20 20 20 20 20 21 21 21 21 20 20 20 20 21 21 21 21 22 22 22 22 23 22 22 22 22 23 23 24 24
23 23 23 23 24 24 23 23 22 22 21 21 21 21 20 20 20 19 19 20 19 19 18 18 18 19 19 20 21 21 21 21 21 21 21 21 22 22 21 21 21 21 21
22 22 23 23 23 23 23 22 22 22 22 21 21 20 19 19 18 18 18 19 19 19 19 19 19 19 19 20 20 21 21 21 20 20 20 20 20 19 19 19 18 18 19
22 22 22 22 22 22 22 22 22 22 22 21 21 20 20 19 18 18 18 19 19 19 19 19 19 19 20 20 20 20 20 20 19 19 19 18 18 17 16 16 16 16 17
21 21 22 22 21 21 21 21 20 20 20 19 19 19 18 18 18 19 19 19 19 19 19 19 19 20 21 21 21 20 20 19 18 17 17 17 16 16 16 15 15 16 16
Wind_Direction
298 296 294 291 292 294 295 295 293 292 290 288 287 286 286 284 282 282 283 283 283 283 283 283 282 281 280 280 279 279 278 278 276 273 275 277 278 279 280 279 280 282 281
300 297 294 291 290 291 292 293 291 291 292 289 287 285 285 284 284 281 281 282 283 282 283 284 284 283 282 281 280 279 278 276 275 274 275 274 276 277 277 278 280 282 284
301 300 297 292 291 291 292 293 292 291 291 292 290 287 286 284 284 283 283 284 284 283 282 283 284 283 281 281 281 278 277 277 274 273 273 273 274 276 276 278 280 282 284
300 300 298 294 292 292 292 293 293 292 291 291 290 288 289 287 284 282 282 282 282 283 283 284 284 284 281 280 280 278 277 276 273 271 271 271 273 275 277 279 279 280 284
299 298 296 292 291 291 291 291 291 292 291 290 289 288 288 289 288 285 282 281 281 282 282 282 282 283 281 279 278 278 278 274 271 270 270 271 274 277 279 279 279 279 282
298 297 294 292 291 291 289 288 288 288 288 288 289 289 288 287 287 287 286 284 283 284 283 282 283 283 281 279 278 278 276 274 272 269 270 272 274 276 277 277 280 282 281
298 297 295 293 293 290 288 286 286 288 287 288 289 289 288 288 287 286 285 286 286 285 284 284 284 283 281 281 280 280 278 276 273 272 275 274 275 275 275 276 278 281 280
297 296 295 295 294 293 290 288 288 288 287 287 287 288 288 288 287 285 285 285 285 286 285 285 286 285 282 280 281 280 278 277 276 276 275 275 275 272 270 274 277 278 277
295 295 295 293 293 293 293 291 290 289 288 285 285 286 286 285 285 286 286 285 285 286 287 287 287 287 286 283 281 280 278 276 275 275 275 274 273 272 271 273 275 276 276
292 292 292 292 293 294 293 291 290 290 289 286 285 284 284 284 284 284 284 284 285 286 288 289 286 284 284 283 281 280 278 276 274 275 275 273 272 272 273 273 274 276 276
292 291 291 292 293 292 291 290 289 289 288 287 286 285 284 284 284 284 282 282 284 286 288 289 288 285 282 282 281 280 278 276 273 273 273 272 272 273 274 274 275 276 276
291 291 292 292 291 290 290 290 290 288 287 286 286 285 283 283 284 284 283 282 282 284 285 285 285 285 285 283 281 280 279 277 275 275 274 273 274 275 275 275 275 276 276
289 289 290 290 290 290 290 290 290 287 286 286 286 284 283 282 282 283 283 283 284 284 285 286 285 285 286 284 282 281 281 279 276 276 275 275 275 275 275 275 277 277 277
289 289 289 289 290 289 288 288 288 288 286 284 284 284 283 281 280 280 282 282 282 283 283 284 284 284 285 284 282 282 282 281 280 278 278 277 275 274 273 274 275 274 275
288 288 288 287 288 289 287 286 286 287 288 287 284 284 283 281 279 277 278 281 280 281 282 283 284 284 284 282 281 282 282 282 282 281 280 279 275 274 273 273 274 274 274
289 288 289 290 289 290 290 291 290 289 288 287 285 284 282 281 280 277 279 281 281 280 281 282 282 283 282 281 282 283 282 282 283 283 281 278 275 273 273 272 273 274 274
290 291 291 292 294 293 292 292 293 291 288 287 286 285 284 283 282 281 281 281 282 284 283 282 281 282 283 282 282 282 280 281 282 282 280 278 277 276 275 273 272 273 274
290 291 292 293 293 293 292 292 291 291 290 287 285 284 285 285 284 284 284 282 282 282 282 282 281 281 281 280 280 281 281 280 281 281 279 278 278 278 277 277 276 275 275
289 291 292 291 290 290 292 291 290 291 291 288 286 285 285 284 285 285 284 283 283 283 283 282 281 280 278 278 278 279 278 279 280 280 280 280 280 279 279 279 277 276 277
290 291 291 290 290 289 290 291 291 290 290 289 288 286 285 284 285 286 285 284 284 284 283 282 281 279 279 279 279 281 280 281 281 279 279 280 280 280 279 277 276 276 277
291 293 293 293 292 291 290 290 290 291 290 289 290 289 288 288 287 286 285 284 284 284 284 284 283 282 280 280 281 282 283 282 280 277 277 278 279 278 277 277 278 278 279
290 292 294 295 296 295 294 293 292 291 291 292 292 289 290 289 288 288 287 285 285 286 286 286 286 285 285 283 284 284 284 285 282 278 276 275 276 278 279 279 281 280 279
288 290 293 295 296 297 298 298 297 296 295 295 294 291 290 291 292 292 291 288 288 287 286 287 287 288 288 288 288 286 285 284 282 279 277 277 279 281 281 281 282 281 280
287 289 291 294 297 299 299 299 299 301 298 296 296 296 293 292 294 295 294 293 291 288 287 287 286 286 289 290 288 286 285 284 282 279 279 282 283 283 282 282 282 281 281
286 288 291 294 296 298 300 301 301 299 298 296 295 296 294 291 292 294 294 293 292 292 290 289 287 288 290 290 289 288 287 285 284 282 282 281 282 282 283 283 283 284 285
285 286 289 293 296 297 300 302 303 302 299 298 298 298 295 290 291 293 295 295 293 293 292 291 290 289 291 291 290 288 288 286 285 284 283 280 279 280 283 286 287 286 287
Height
5863 5861 5860 5858 5857 5856 5854 5853 5851 5850 5849 5847 5846 5845 5844 5842 5841 5840 5839 5838 5837 5836 5835 5834 5833 5832 5832 5831 5830 5829 5828 5828 5827 5827 5826 5825 5824 5823 5822 5821 5820 5819 5818
5858 5857 5855 5853 5852 5851 5849 5848 5846 5845 5844 5842 5840 5839 5838 5837 5836 5835 5834 5833 5831 5830 5829 5828 5827 5826 5826 5825 5824 5823 5822 5821 5821 5821 5820 5819 5818 5817 5817 5816 5815 5814 5812
5853 5851 5849 5848 5846 5845 5843 5842 5841 5839 5838 5836 5834 5833 5832 5831 5830 5829 5828 5827 5825 5824 5823 5821 5820 5819 5819 5818 5817 5817 5816 5815 5814 5814 5814 5813 5812 5811 5811 5810 5809 5808 5807
5848 5846 5844 5842 5840 5839 5838 5836 5835 5833 5832 5830 5829 5828 5826 5824 5823 5822 5821 5820 5819 5817 5816 5815 5814 5813 5812 5811 5811 5810 5810 5809 5808 5808 5808 5807 5807 5806 5805 5804 5804 5803 5801
5843 5841 5839 5837 5835 5833 5832 5830 5829 5827 5826 5824 5823 5821 5820 5818 5817 5815 5814 5813 5812 5811 5809 5808 5807 5806 5805 5804 5804 5803 5802 5802 5802 5802 5801 5801 5801 5800 5799 5798 5797 5796 5795
5837 5835 5833 5831 5829 5827 5826 5824 5822 5821 5819 5818 5816 5814 5813 5811 5810 5809 5807 5806 5805 5804 5802 5801 5800 5798 5797 5797 5796 5795 5795 5795 5794 5795 5795 5794 5794 5794 5792 5792 5791 5790 5789
5830 5828 5826 5825 5823 5821 5820 5818 5816 5814 5813 5811 5809 5808 5806 5805 5803 5802 5801 5799 5797 5796 5794 5793 5792 5791 5790 5790 5790 5789 5789 5788 5788 5788 5787 5787 5786 5786 5786 5785 5784 5783 5782
5824 5822 5820 5818 5816 5815 5813 5811 5810 5808 5806 5804 5802 5801 5799 5798 5797 5795 5794 5792 5790 5789 5787 5786 5784 5783 5782 5782 5782 5782 5782 5781 5781 5780 5780 5780 5779 5779 5778 5778 5776 5776 5775
5819 5817 5814 5812 5810 5808 5806 5804 5802 5800 5799 5797 5795 5794 5792 5791 5789 5788 5786 5785 5783 5781 5780 5778 5777 5776 5775 5774 5774 5775 5774 5774 5773 5773 5772 5772 5772 5771 5771 5770 5769 5768 5768
5812 5810 5808 5806 5804 5802 5799 5797 5795 5793 5791 5789 5788 5786 5785 5784 5782 5781 5779 5778 5776 5775 5773 5771 5770 5769 5768 5767 5767 5767 5767 5767 5766 5765 5765 5765 5764 5764 5763 5762 5762 5761 5760
5805 5803 5801 5799 5797 5794 5792 5790 5788 5786 5784 5782 5780 5779 5778 5777 5775 5774 5773 5771 5770 5768 5766 5765 5763 5762 5761 5761 5760 5760 5759 5759 5758 5758 5757 5757 5756 5756 5755 5755 5754 5754 5753
5798 5796 5794 5792 5790 5787 5785 5783 5781 5778 5777 5775 5773 5772 5770 5769 5768 5767 5765 5764 5763 5761 5760 5758 5757 5756 5755 5754 5753 5753 5752 5751 5751 5750 5750 5749 5749 5748 5748 5747 5746 5746 5745
5791 5789 5787 5784 5782 5780 5778 5775 5773 5771 5769 5768 5766 5765 5763 5762 5761 5759 5758 5757 5756 5755 5754 5752 5751 5750 5749 5747 5747 5745 5744 5744 5743 5743 5742 5742 5741 5740 5740 5739 5738 5738 5737
5784 5781 5779 5777 5775 5772 5770 5768 5766 5763 5762 5760 5758 5757 5756 5754 5753 5752 5751 5749 5749 5748 5746 5745 5744 5743 5742 5741 5740 5738 5737 5736 5735 5735 5734 5733 5732 5732 5731 5731 5731 5730 5729
5777 5774 5771 5769 5767 5764 5762 5760 5758 5756 5754 5752 5751 5749 5748 5747 5746 5744 5743 5742 5741 5741 5739 5738 5737 5736 5735 5734 5732 5731 5730 5729 5728 5727 5726 5724 5723 5723 5723 5723 5723 5722 5721
5769 5767 5764 5762 5760 5757 5754 5752 5750 5748 5746 5744 5742 5741 5740 5739 5738 5737 5736 5735 5734 5733 5732 5731 5730 5729 5728 5727 5726 5724 5723 5722 5721 5719 5718 5717 5716 5715 5715 5715 5714 5714 5713
5762 5760 5758 5755 5753 5750 5748 5745 5744 5741 5739 5737 5735 5734 5733 5732 5731 5730 5729 5728 5727 5726 5725 5724 5723 5722 5721 5720 5718 5717 5716 5715 5713 5712 5710 5709 5708 5708 5707 5707 5706 5706 5705
5755 5753 5751 5749 5746 5744 5741 5739 5737 5734 5732 5730 5729 5727 5726 5725 5724 5723 5722 5721 5720 5719 5718 5717 5715 5715 5713 5712 5711 5710 5709 5707 5706 5705 5703 5702 5701 5701 5700 5699 5699 5698 5698
5748 5747 5744 5742 5740 5737 5735 5733 5730 5728 5726 5724 5722 5721 5719 5718 5717 5716 5715 5714 5713 5712 5711 5709 5708 5707 5706 5705 5704 5703 5701 5700 5699 5698 5697 5696 5695 5694 5693 5692 5692 5691 5690
5742 5740 5738 5735 5733 5731 5729 5726 5724 5721 5719 5717 5716 5714 5713 5712 5711 5710 5708 5707 5706 5705 5704 5702 5701 5700 5699 5698 5697 5695 5694 5693 5692 5691 5690 5689 5688 5687 5686 5685 5684 5683 5682
5735 5733 5731 5729 5726 5724 5722 5719 5717 5714 5712 5710 5709 5708 5707 5706 5704 5703 5702 5701 5700 5698 5696 5695 5693 5692 5691 5691 5690 5688 5687 5686 5685 5684 5683 5682 5681 5680 5679 5678 5677 5676 5675
5728 5727 5725 5722 5720 5717 5715 5713 5710 5708 5706 5705 5703 5701 5700 5699 5697 5696 5695 5694 5692 5691 5689 5688 5687 5686 5685 5683 5683 5681 5680 5679 5678 5677 5676 5675 5673 5672 5671 5670 5669 5668 5666
5722 5720 5719 5716 5714 5711 5709 5706 5704 5702 5700 5699 5697 5695 5693 5692 5691 5690 5688 5687 5685 5685 5683 5682 5681 5679 5678 5677 5675 5674 5673 5672 5671 5669 5668 5667 5666 5665 5664 5663 5661 5660 5658
5716 5714 5713 5710 5708 5706 5703 5701 5699 5697 5695 5693 5691 5689 5688 5686 5685 5684 5682 5681 5680 5678 5677 5676 5675 5673 5672 5670 5669 5668 5666 5665 5664 5663 5661 5660 5659 5658 5657 5656 5654 5653 5652
5709 5708 5706 5704 5702 5700 5697 5695 5693 5691 5689 5687 5685 5683 5682 5680 5679 5678 5676 5675 5673 5672 5671 5669 5668 5667 5666 5664 5663 5661 5660 5658 5657 5656 5654 5653 5652 5652 5651 5650 5648 5647 5646
5703 5701 5700 5698 5696 5694 5691 5689 5687 5685 5682 5681 5679 5677 5676 5674 5673 5672 5670 5669 5667 5666 5665 5663 5662 5661 5659 5658 5656 5655 5653 5652 5651 5649 5648 5647 5646 5646 5645 5644 5643 5641 5641